Location: Unspecified
(39.4830°S, 0.0000°E)
Time: 02:01:57
(UTC+00:00)

N. Korean satellite - Visible Passes

Search period start: 23 October 2019 00:00
Search period end: 02 November 2019 00:00
Orbit: 455 x 508 km, 97.2° (Epoch: 22 October)

Date Brightness Start Highest point End Pass type
(mag) Time Alt. Az. Time Alt. Az. Time Alt. Az.
23 Oct 10.6 03:57:48 10° E 03:59:06 11° ESE 04:00:22 10° SE visible
26 Oct 10.0 04:13:47 10° ENE 04:16:22 18° ESE 04:18:58 10° SSE visible
29 Oct 10.6 19:05:50 10° SW 19:07:07 12° WSW 19:08:24 10° W visible
30 Oct 10.2 04:06:27 10° ENE 04:08:33 15° ESE 04:10:40 10° SSE visible
